Location: Brede
(50.9167°N, 0.6000°E)
Time: 16:03:57
(UTC+00:00)

Timation 2 Rocket - Pass Details

Date: 08 August 2020
Orbit: 907 x 1074 km, 70.0° (Epoch: 23 September)

Event Time Altitude Azimuth Distance (km) Brightness Sun altitude
Exits shadow 01:44:04 32° 227° (SW) 1,559 4.6 -19.5°
Maximum altitude 01:47:03 72° 304° (NW) 979 4.0 -19.3°
Drops below altitude 10° 01:53:05 10° 29° (NNE) 2,613 7.5 -18.9°
Sets 01:55:35 0° 32° (NNE) 3,551 8.6 -18.7°
